Location: Vanderbilt Beach
(26.2700°N, 81.7900°W)
Time: 21:37:19
(UTC-04:00)

Envisat - Pass Details

Date: 14 June 2021
Orbit: 764 x 766 km, 98.2° (Epoch: 02 August)

Event Time Altitude Azimuth Distance (km) Brightness Sun altitude
Rises 05:35:39 0° 37° (NE) 3,230 7.8 -12.2°
Reaches altitude 10° 05:38:57 10° 60° (ENE) 2,300 7.0 -11.6°
Maximum altitude 05:41:52 15° 95° (E) 1,951 5.9 -11.0°
Drops below altitude 10° 05:44:45 10° 131° (SE) 2,293 5.7 -10.5°
Sets 05:48:01 0° 153° (SSE) 3,214 6.2 -9.9°
